GW6749 Weather Reports


Display with metric or nautical units.
time (UTC)temp
F
wind
direction
speed
MPH
gust
MPH
rain 1hr
in
rain 24hr
in
rain mn
in
humidity
%
barometer
mb
20260504081524 34 272 0.0 0.0 0.00 0.00 0.00 89 1012.1
20260504050021 37 273 0.0 0.0 0.00 0.00 0.00 85 1011.8
20260504044520 38 273 0.0 1.0 0.00 0.00 0.00 84 1011.7
20260504043027 36 273 0.0 0.0 0.00 0.00 0.00 88 1011.6
20260504041532 36 273 0.0 0.0 0.00 0.00 0.00 88 1011.5
20260504040026 36 273 0.0 0.0 0.00 0.00 0.00 87 1011.4
20260504034518 37 273 0.0 0.0 0.00 0.00 0.00 86 1011.3
20260504033020 38 273 0.0 0.0 0.00 0.00 0.00 85 1011.2
20260504031524 38 273 0.0 0.0 0.00 0.00 0.00 84 1011.3
20260504030026 38 273 0.0 0.0 0.00 0.00 0.00 82 1011.3
20260504024528 39 273 0.0 0.0 0.00 0.00 0.00 80 1011.4
20260504023014 39 273 0.0 0.0 0.00 0.00 0.00 80 1011.5
20260504021518 39 273 0.0 0.0 0.00 0.00 0.00 80 1011.5
20260504020023 40 273 0.0 0.0 0.00 0.00 0.00 78 1011.5
20260504014528 41 273 0.0 0.0 0.00 0.00 0.00 76 1011.5
20260504013030 42 273 0.0 0.0 0.00 0.00 0.00 73 1011.5
20260504011534 43 273 0.0 0.0 0.00 0.00 0.00 70 1011.4
20260504010019 45 273 0.0 0.0 0.00 0.00 0.00 66 1011.2
20260504004524 47 273 0.0 0.0 0.00 0.00 0.00 60 1011.1
20260504003029 50 273 0.0 0.0 0.00 0.00 0.00 53 1011.0
20260504001532 53 273 0.0 3.0 0.00 0.00 0.00 46 1010.8
20260504000027 54 333 0.0 8.0 0.00 0.00 0.00 43 1010.7
20260503234524 55 344 2.0 9.0 0.00 0.00 0.00 42 1010.6
20260503233035 56 335 2.0 11.0 0.00 0.00 0.00 40 1010.4
20260503231533 56 315 7.0 18.0 0.00 0.00 0.00 39 1010.4
20260503230030 57 329 2.0 9.0 0.00 0.00 0.00 37 1010.1
20260503224528 57 340 1.0 11.0 0.00 0.00 0.00 37 1009.9
20260503223022 58 355 2.0 9.0 0.00 0.00 0.00 37 1009.8
20260503221529 58 331 2.0 9.0 0.00 0.00 0.00 35 1009.7
20260503220028 59 338 4.0 9.0 0.00 0.00 0.00 34 1009.7
20260503214530 59 259 4.0 10.0 0.00 0.00 0.00 33 1009.7
20260503213033 58 313 4.0 13.0 0.00 0.00 0.00 34 1009.6
20260503211524 60 242 2.0 16.0 0.00 0.00 0.00 33 1009.4
20260503210026 59 232 4.0 14.0 0.00 0.00 0.00 31 1009.6
20260503204526 59 341 5.0 15.0 0.00 0.00 0.00 31 1009.7
20260503203036 57 334 4.0 17.0 0.00 0.00 0.00 33 1009.8
20260503201528 59 331 5.0 18.0 0.00 0.00 0.00 31 1009.8
20260503200024 57 291 7.0 16.0 0.00 0.00 0.00 33 1009.7
20260503194527 57 312 5.0 13.0 0.00 0.00 0.00 34 1010.0
20260503193014 57 332 8.0 16.0 0.00 0.00 0.00 35 1010.2
20260503191518 57 310 8.0 16.0 0.00 0.00 0.00 34 1010.2
20260503190022 56 33 5.0 16.0 0.00 0.00 0.00 36 1010.4
20260503184524 56 12 6.0 15.0 0.00 0.00 0.00 35 1010.5
20260503183014 56 321 4.0 19.0 0.00 0.00 0.00 38 1010.6
20260503181514 54 323 7.0 18.0 0.00 0.00 0.00 39 1010.8
20260503180021 54 334 4.0 16.0 0.00 0.00 0.00 40 1010.7
20260503174524 53 266 6.0 13.0 0.00 0.00 0.00 40 1010.9
20260503173029 52 280 3.0 12.0 0.00 0.00 0.00 44 1011.2
20260503171511 53 313 5.0 14.0 0.00 0.00 0.00 43 1011.3